�������l�o���
Date,Time,MP-1(��Sv/h),MP-2(��Sv/h),MP-3(��Sv/h),MP-4(��Sv/h),MP-5(��Sv/h),MP-6(��Sv/h),MP-7(��Sv/h),MP-8(��Sv/h),����,����(m/s),���J
2018/06/28,00:00,0.904,1.270,0.891,1.593,1.118,0.486,0.840,0.797,�쓌,0.9,��
2018/06/28,00:10,0.906,1.271,0.891,1.591,1.120,0.484,0.839,0.796,��쐼,1.4,��
2018/06/28,00:20,0.907,1.273,0.890,1.591,1.118,0.484,0.840,0.798,��,1.5,��
2018/06/28,00:30,0.907,1.270,0.890,1.594,1.118,0.485,0.841,0.797,��쐼,2.0,��
2018/06/28,00:40,0.904,1.271,0.889,1.593,1.118,0.484,0.841,0.798,��,2.2,��
2018/06/28,00:50,0.902,1.273,0.891,1.593,1.119,0.485,0.839,0.797,��,2.0,��
2018/06/28,01:00,0.903,1.270,0.889,1.592,1.118,0.484,0.839,0.798,�k�k��,2.5,��
2018/06/28,01:10,0.902,1.268,0.889,1.594,1.117,0.482,0.838,0.797,�k,4.0,��
2018/06/28,01:20,0.904,1.268,0.890,1.592,1.115,0.483,0.841,0.795,�k�k��,3.3,��
2018/06/28,01:30,0.902,1.271,0.888,1.594,1.116,0.484,0.840,0.797,�k��,1.4,��
2018/06/28,01:40,0.904,1.269,0.889,1.592,1.115,0.482,0.840,0.798,�k,2.8,��
2018/06/28,01:50,0.905,1.269,0.889,1.594,1.117,0.483,0.841,0.798,�k�k��,3.9,��
2018/06/28,02:00,0.906,1.267,0.889,1.595,1.118,0.485,0.840,0.798,�k�k��,5.3,��
2018/06/28,02:10,0.905,1.269,0.889,1.594,1.117,0.484,0.840,0.798,�k�k��,4.5,��
2018/06/28,02:20,0.906,1.266,0.889,1.594,1.117,0.483,0.841,0.797,�k��,4.2,��
2018/06/28,02:30,0.905,1.268,0.890,1.596,1.116,0.483,0.840,0.798,���k��,6.0,��
2018/06/28,02:40,0.905,1.270,0.888,1.596,1.117,0.482,0.841,0.797,���k��,6.4,��
2018/06/28,02:50,0.904,1.270,0.889,1.591,1.118,0.482,0.840,0.797,���k��,6.0,��
2018/06/28,03:00,0.902,1.269,0.890,1.594,1.117,0.482,0.838,0.796,��,3.7,��
2018/06/28,03:10,0.902,1.269,0.888,1.590,1.116,0.483,0.838,0.797,���쐼,2.0,��
2018/06/28,03:20,0.903,1.270,0.889,1.591,1.116,0.483,0.840,0.798,���쐼,2.8,��
2018/06/28,03:30,0.902,1.267,0.888,1.593,1.115,0.481,0.840,0.799,���쐼,3.0,��
2018/06/28,03:40,0.901,1.270,0.889,1.594,1.117,0.483,0.839,0.797,���쐼,4.2,��
2018/06/28,03:50,0.901,1.269,0.889,1.593,1.116,0.484,0.841,0.799,��,5.1,��
2018/06/28,04:00,0.900,1.268,0.888,1.595,1.119,0.483,0.841,0.797,��쐼,1.2,��
2018/06/28,04:10,0.902,1.269,0.891,1.593,1.116,0.482,0.839,0.796,���쐼,2.6,��
2018/06/28,04:20,0.901,1.268,0.887,1.594,1.118,0.484,0.838,0.799,���쐼,3.9,��
2018/06/28,04:30,0.903,1.269,0.888,1.596,1.117,0.483,0.841,0.798,���쐼,2.3,��
2018/06/28,04:40,0.903,1.270,0.887,1.597,1.117,0.484,0.840,0.796,�쐼,0.6,��
2018/06/28,04:50,0.901,1.271,0.888,1.594,1.120,0.483,0.840,0.797,�쓌,1.2,��
2018/06/28,05:00,0.904,1.269,0.888,1.593,1.122,0.484,0.840,0.797,��쐼,2.0,��
2018/06/28,05:10,0.905,1.271,0.888,1.596,1.119,0.483,0.840,0.799,��쐼,2.2,��
2018/06/28,05:20,0.902,1.271,0.889,1.593,1.118,0.484,0.839,0.797,-,CALM,��
2018/06/28,05:30,0.902,1.270,0.890,1.598,1.119,0.483,0.840,0.799,�쓌,3.1,��
2018/06/28,05:40,0.901,1.269,0.889,1.594,1.119,0.482,0.839,0.798,�쓌,4.6,��
2018/06/28,05:50,0.902,1.273,0.887,1.595,1.119,0.482,0.840,0.797,��쓌,4.3,��
2018/06/28,06:00,0.901,1.269,0.888,1.595,1.118,0.482,0.839,0.799,��쓌,5.3,��
2018/06/28,06:10,0.900,1.269,0.886,1.595,1.117,0.481,0.839,0.796,��쓌,5.4,��
2018/06/28,06:20,0.900,1.269,0.886,1.594,1.118,0.482,0.839,0.795,��,4.7,��
2018/06/28,06:30,0.902,1.268,0.887,1.593,1.118,0.482,0.839,0.795,��,6.4,��
2018/06/28,06:40,0.901,1.266,0.887,1.596,1.118,0.483,0.839,0.796,��,5.4,��
2018/06/28,06:50,0.904,1.267,0.889,1.594,1.119,0.480,0.839,0.798,��,3.4,��
2018/06/28,07:00,0.903,1.269,0.891,1.595,1.121,0.481,0.839,0.796,��쐼,2.5,��
2018/06/28,07:10,0.902,1.268,0.888,1.594,1.117,0.481,0.839,0.797,��쐼,4.4,��
2018/06/28,07:20,0.903,1.268,0.888,1.594,1.119,0.481,0.840,0.800,��쐼,3.7,��
2018/06/28,07:30,0.904,1.269,0.888,1.595,1.117,0.483,0.839,0.798,�쐼,1.4,��
2018/06/28,07:40,0.905,1.267,0.888,1.596,1.120,0.482,0.839,0.798,��쐼,3.1,��
2018/06/28,07:50,0.906,1.269,0.889,1.596,1.122,0.483,0.841,0.798,��쐼,3.5,��
2018/06/28,08:00,0.904,1.271,0.889,1.595,1.120,0.485,0.840,0.797,��쐼,3.8,��
2018/06/28,08:10,0.904,1.270,0.890,1.595,1.121,0.483,0.840,0.797,��,2.8,��
2018/06/28,08:20,0.903,1.270,0.890,1.595,1.120,0.484,0.841,0.797,��,1.9,��
2018/06/28,08:30,0.904,1.269,0.889,1.595,1.119,0.484,0.838,0.796,��,2.6,��
2018/06/28,08:40,0.906,1.271,0.889,1.597,1.121,0.483,0.842,0.797,��쐼,2.9,��
2018/06/28,08:50,0.906,1.270,0.887,1.597,1.121,0.482,0.839,0.796,��쐼,4.1,�L
2018/06/28,09:00,0.904,1.272,0.888,1.597,1.120,0.486,0.841,0.794,��쐼,4.2,�L
2018/06/28,09:10,0.908,1.272,0.888,1.597,1.120,0.484,0.839,0.797,��쐼,5.5,�L
2018/06/28,09:20,0.905,1.269,0.889,1.597,1.120,0.483,0.841,0.796,��쐼,5.6,��
2018/06/28,09:30,0.905,1.271,0.889,1.596,1.120,0.484,0.839,0.795,��,5.1,��
2018/06/28,09:40,0.906,1.272,0.887,1.596,1.119,0.484,0.838,0.795,��,5.9,�L
2018/06/28,09:50,0.905,1.271,0.887,1.595,1.120,0.483,0.840,0.796,��,5.3,�L
2018/06/28,10:00,0.905,1.272,0.889,1.595,1.119,0.483,0.838,0.796,��,5.1,�L
2018/06/28,10:10,0.905,1.272,0.890,1.595,1.118,0.484,0.839,0.797,��,5.5,�L
2018/06/28,10:20,0.906,1.273,0.888,1.596,1.120,0.484,0.838,0.797,��,2.5,�L
2018/06/28,10:30,0.907,1.272,0.890,1.597,1.118,0.486,0.839,0.795,��,2.2,�L
2018/06/28,10:40,0.904,1.272,0.891,1.592,1.119,0.484,0.839,0.796,��쓌,3.4,�L
2018/06/28,10:50,0.905,1.272,0.890,1.594,1.118,0.486,0.840,0.795,��,4.3,�L
2018/06/28,11:00,0.905,1.272,0.890,1.595,1.119,0.487,0.839,0.796,��쐼,2.8,�L
2018/06/28,11:10,0.905,1.267,0.893,1.595,1.119,0.489,0.840,0.797,�쐼,1.9,�L
2018/06/28,11:20,0.907,1.270,0.893,1.594,1.118,0.487,0.839,0.796,��쐼,1.5,�L
2018/06/28,11:30,0.906,1.268,0.893,1.595,1.119,0.489,0.838,0.797,��쓌,2.0,�L
2018/06/28,11:40,0.904,1.266,0.890,1.594,1.115,0.487,0.838,0.796,��,3.0,�L
2018/06/28,11:50,0.904,1.265,0.889,1.594,1.116,0.484,0.840,0.796,��,4.3,�L
2018/06/28,12:00,0.903,1.265,0.889,1.593,1.115,0.484,0.837,0.794,��,4.5,�L
2018/06/28,12:10,0.901,1.266,0.888,1.593,1.113,0.485,0.837,0.793,��쓌,4.9,�L
2018/06/28,12:20,0.900,1.266,0.890,1.591,1.112,0.484,0.838,0.794,��쓌,5.4,�L
2018/06/28,12:30,0.898,1.265,0.888,1.592,1.112,0.483,0.837,0.793,��,5.3,�L
2018/06/28,12:40,0.901,1.264,0.886,1.589,1.114,0.483,0.837,0.794,��,5.8,�L
2018/06/28,12:50,0.899,1.260,0.886,1.592,1.112,0.482,0.837,0.792,��,5.3,��
2018/06/28,13:00,0.901,1.264,0.886,1.591,1.112,0.482,0.836,0.795,��쐼,3.4,��
2018/06/28,13:10,0.901,1.261,0.887,1.589,1.110,0.482,0.838,0.794,�쐼,3.4,�L
2018/06/28,13:20,0.901,1.261,0.886,1.589,1.112,0.483,0.837,0.794,�쐼,3.1,�L
2018/06/28,13:30,0.901,1.261,0.886,1.588,1.111,0.484,0.838,0.794,�쐼,3.0,�L
2018/06/28,13:40,0.900,1.261,0.886,1.589,1.113,0.483,0.838,0.793,��쐼,2.9,�L
2018/06/28,13:50,0.900,1.261,0.887,1.590,1.112,0.483,0.837,0.793,��쐼,2.8,��
2018/06/28,14:00,0.900,1.264,0.886,1.590,1.114,0.483,0.838,0.793,�쐼,2.3,��
2018/06/28,14:10,0.903,1.263,0.887,1.591,1.113,0.483,0.837,0.793,�쐼,1.5,��
2018/06/28,14:20,0.902,1.266,0.888,1.592,1.113,0.483,0.837,0.795,��,1.7,��
2018/06/28,14:30,0.901,1.266,0.887,1.590,1.113,0.483,0.838,0.793,���k��,1.9,��
2018/06/28,14:40,0.900,1.267,0.886,1.590,1.114,0.483,0.838,0.793,�k�k��,0.9,��
2018/06/28,14:50,0.902,1.268,0.885,1.590,1.114,0.485,0.837,0.792,��,0.8,��
2018/06/28,15:00,0.903,1.266,0.887,1.591,1.111,0.484,0.836,0.794,���쓌,0.9,��
2018/06/28,15:10,0.902,1.266,0.888,1.593,1.113,0.485,0.837,0.795,���쓌,1.2,��
2018/06/28,15:20,0.903,1.270,0.887,1.590,1.115,0.485,0.839,0.793,���k��,1.2,��
2018/06/28,15:30,0.902,1.267,0.888,1.589,1.115,0.483,0.839,0.793,�쓌,1.5,��
2018/06/28,15:40,0.900,1.268,0.886,1.589,1.115,0.484,0.836,0.792,�쓌,1.7,��
2018/06/28,15:50,0.901,1.265,0.885,1.590,1.114,0.481,0.836,0.792,�쓌,1.2,��
2018/06/28,16:00,0.900,1.266,0.885,1.591,1.114,0.483,0.838,0.793,�쓌,1.7,��
2018/06/28,16:10,0.901,1.267,0.886,1.594,1.114,0.482,0.836,0.793,���쓌,1.7,��
2018/06/28,16:20,0.903,1.268,0.886,1.592,1.113,0.483,0.837,0.793,���쓌,1.2,��
2018/06/28,16:30,0.901,1.270,0.886,1.593,1.116,0.483,0.837,0.795,��,1.4,��
2018/06/28,16:40,0.901,1.270,0.886,1.588,1.114,0.482,0.838,0.794,���쓌,1.7,��
2018/06/28,16:50,0.903,1.268,0.886,1.590,1.115,0.483,0.838,0.794,���쓌,1.7,��
2018/06/28,17:00,0.903,1.270,0.889,1.591,1.113,0.483,0.839,0.795,�쓌,1.5,��
2018/06/28,17:10,0.904,1.267,0.888,1.592,1.115,0.482,0.838,0.796,��쓌,2.2,��
2018/06/28,17:20,0.901,1.270,0.890,1.591,1.111,0.484,0.838,0.795,��쓌,3.0,�L
2018/06/28,17:30,0.899,1.269,0.888,1.590,1.115,0.482,0.839,0.794,��쓌,4.3,�L
2018/06/28,17:40,0.902,1.271,0.887,1.592,1.116,0.483,0.840,0.794,��쓌,5.6,�L
2018/06/28,17:50,0.902,1.268,0.888,1.590,1.114,0.484,0.838,0.795,��,5.5,�L
2018/06/28,18:00,0.904,1.270,0.887,1.590,1.113,0.482,0.839,0.795,��,4.2,�L
2018/06/28,18:10,0.902,1.270,0.888,1.593,1.117,0.484,0.840,0.795,��쐼,3.1,��
2018/06/28,18:20,0.901,1.270,0.889,1.590,1.112,0.483,0.838,0.796,��쐼,2.5,��
2018/06/28,18:30,0.904,1.269,0.889,1.591,1.114,0.483,0.838,0.796,��,1.7,��
2018/06/28,18:40,0.901,1.269,0.888,1.592,1.115,0.484,0.838,0.795,��,1.7,��
2018/06/28,18:50,0.903,1.271,0.885,1.590,1.114,0.484,0.841,0.797,��쓌,2.0,��
2018/06/28,19:00,0.904,1.268,0.888,1.589,1.116,0.484,0.838,0.795,��,2.6,��
2018/06/28,19:10,0.901,1.271,0.887,1.590,1.115,0.484,0.840,0.796,��,2.5,��
2018/06/28,19:20,0.902,1.269,0.889,1.591,1.113,0.484,0.840,0.795,��쐼,2.0,��
2018/06/28,19:30,0.903,1.271,0.887,1.590,1.115,0.485,0.836,0.797,��쐼,1.7,��
2018/06/28,19:40,0.902,1.272,0.889,1.593,1.116,0.484,0.841,0.796,�쐼,1.7,��
2018/06/28,19:50,0.901,1.272,0.890,1.590,1.117,0.483,0.840,0.796,�쐼,2.2,��
2018/06/28,20:00,0.901,1.269,0.887,1.594,1.115,0.485,0.841,0.797,�쐼,2.8,��
2018/06/28,20:10,0.901,1.271,0.890,1.590,1.114,0.484,0.839,0.796,�쐼,3.3,��
2018/06/28,20:20,0.899,1.269,0.887,1.594,1.114,0.483,0.838,0.795,�쐼,3.0,��
2018/06/28,20:30,0.902,1.270,0.890,1.590,1.112,0.483,0.839,0.797,��쐼,2.6,��
2018/06/28,20:40,0.903,1.270,0.889,1.593,1.117,0.482,0.840,0.796,��쐼,2.5,��
2018/06/28,20:50,0.901,1.269,0.888,1.593,1.116,0.485,0.839,0.797,��쐼,2.6,��
2018/06/28,21:00,0.904,1.270,0.886,1.591,1.115,0.484,0.840,0.797,��쐼,2.8,��
2018/06/28,21:10,0.902,1.268,0.887,1.589,1.112,0.482,0.840,0.796,��쐼,3.7,��
2018/06/28,21:20,0.902,1.271,0.886,1.592,1.114,0.483,0.839,0.796,��,4.6,��
2018/06/28,21:30,0.903,1.268,0.887,1.589,1.114,0.483,0.838,0.796,��,4.5,��
2018/06/28,21:40,0.902,1.270,0.886,1.593,1.112,0.482,0.841,0.796,��,3.7,��
2018/06/28,21:50,0.902,1.270,0.888,1.593,1.115,0.482,0.840,0.797,��,4.0,��
2018/06/28,22:00,0.903,1.268,0.888,1.592,1.114,0.482,0.838,0.796,��,3.4,��
2018/06/28,22:10,0.901,1.271,0.888,1.591,1.112,0.482,0.838,0.795,��,3.5,��
2018/06/28,22:20,0.902,1.269,0.886,1.591,1.113,0.482,0.839,0.796,��,2.8,��
2018/06/28,22:30,0.901,1.271,0.885,1.591,1.113,0.482,0.838,0.794,��쓌,3.2,��
2018/06/28,22:40,0.900,1.268,0.886,1.591,1.114,0.483,0.838,0.797,��쓌,3.6,��
2018/06/28,22:50,0.901,1.271,0.888,1.591,1.114,0.483,0.839,0.795,��쓌,3.5,��
2018/06/28,23:00,0.899,1.269,0.886,1.591,1.115,0.482,0.840,0.796,��,3.0,��
2018/06/28,23:10,0.901,1.269,0.887,1.590,1.115,0.482,0.836,0.794,��쐼,2.5,��
2018/06/28,23:20,0.900,1.269,0.887,1.590,1.115,0.482,0.840,0.795,��쐼,2.2,��
2018/06/28,23:30,0.901,1.271,0.887,1.593,1.114,0.482,0.838,0.798,��쐼,2.3,��
2018/06/28,23:40,0.900,1.269,0.887,1.590,1.114,0.482,0.839,0.796,��,2.0,��
2018/06/28,23:50,0.901,1.268,0.888,1.591,1.112,0.481,0.839,0.796,��,2.8,��
